Dewpoint
-2 -3 -4 -4 -7 -6 -5 -4 -3 -2 -4 -7 -3 -3 -3 -2 -0 -0 -1 -2 -4 -4 -5 -7 -3 -4 -5 -4 -6 -5 -4 -3 -4 -5 -5 -5 -5 -3
-3 -3 -3 -3 -3 -4 -5 -6 -6 -6 -5 -6 -6 -8 -6 -5 -2 -1 -2 -3 -4 -3 -4 -5 -6 -5 -4 -4 -4 -4 -3 -3 -3 -4 -5 -7 -7 -8
-6 -4 -4 -4 -4 -4 -4 -5 -7 -9 -8 -9 -9 -9 -9 -9 -7 -5 -3 -5 -6 -6 -7 -7 -8 -8 -5 -4 -4 -5 -5 -5 -6 -6 -6 -6 -7 -9
-5 -6 -7 -7 -8 -7 -7 -6 -9 -9 -10 -10 -10 -10 -11 -11 -10 -10 -9 -7 -7 -7 -7 -7 -8 -9 -10 -10 -8 -5 -5 -8 -8 -8 -8 -8 -9 -9
-11 -11 -9 -9 -9 -9 -11 -10 -10 -9 -9 -9 -10 -10 -11 -11 -11 -11 -10 -10 -9 -9 -8 -9 -8 -9 -8 -10 -11 -11 -11 -7 -7 -7 -8 -8 -8 -8
-14 -16 -12 -11 -9 -9 -8 -8 -9 -9 -8 -9 -10 -11 -11 -11 -12 -13 -13 -12 -11 -10 -9 -9 -9 -9 -9 -9 -10 -11 -12 -12 -12 -10 -8 -8 -7 -7
-12 -14 -15 -12 -11 -11 -9 -8 -9 -10 -13 -13 -13 -11 -10 -11 -11 -9 -8 -8 -8 -8 -8 -9 -9 -8 -8 -9 -10 -10 -11 -11 -13 -15 -14 -10 -9 -9
-11 -14 -13 -12 -12 -11 -10 -9 -10 -12 -12 -12 -12 -11 -10 -10 -9 -9 -9 -8 -8 -9 -9 -9 -9 -8 -8 -6 -5 -5 -5 -8 -9 -9 -9 -12 -16 -16
-13 -11 -11 -10 -10 -9 -9 -9 -9 -9 -9 -9 -9 -10 -11 -12 -11 -10 -10 -9 -8 -8 -9 -9 -9 -9 -9 -8 -6 -5 -6 -6 -6 -6 -7 -7 -7 -11
-13 -12 -12 -11 -11 -10 -10 -10 -11 -11 -11 -10 -11 -11 -9 -10 -10 -10 -9 -9 -10 -9 -9 -8 -9 -10 -10 -9 -8 -8 -8 -8 -8 -6 -6 -6 -7 -8
-14 -12 -11 -12 -12 -12 -11 -12 -13 -13 -13 -12 -11 -10 -10 -10 -10 -10 -10 -10 -9 -9 -10 -10 -9 -9 -10 -11 -12 -12 -12 -13 -13 -13 -11 -8 -7 -7
-13 -13 -13 -12 -11 -11 -10 -10 -10 -11 -10 -11 -10 -11 -11 -11 -10 -9 -9 -9 -12 -11 -12 -11 -8 -8 -7 -10 -11 -12 -13 -10 -9 -10 -11 -10 -10 -8
-13 -13 -12 -11 -11 -11 -11 -12 -12 -12 -12 -12 -13 -13 -12 -12 -11 -11 -10 -9 -9 -10 -11 -10 -9 -9 -9 -7 -9 -11 -11 -10 -10 -7 -7 -8 -9 -9
-13 -12 -12 -12 -12 -12 -12 -12 -12 -12 -12 -12 -11 -11 -10 -10 -10 -10 -10 -9 -9 -8 -9 -8 -8 -8 -9 -10 -9 -10 -9 -8 -8 -7 -7 -7 -7 -7
-13 -13 -12 -12 -13 -12 -12 -12 -12 -12 -11 -11 -11 -11 -10 -10 -10 -10 -9 -9 -8 -8 -8 -8 -8 -9 -8 -9 -9 -9 -9 -10 -9 -7 -6 -6 -7 -8
-13 -13 -13 -13 -13 -12 -12 -12 -12 -12 -12 -11 -11 -11 -10 -10 -9 -9 -8 -7 -8 -9 -9 -9 -9 -9 -9 -9 -9 -9 -10 -10 -11 -8 -7 -7 -7 -8
-13 -13 -14 -14 -13 -13 -13 -13 -12 -12 -12 -12 -11 -11 -10 -10 -9 -8 -8 -8 -8 -8 -8 -8 -9 -8 -8 -9 -9 -9 -10 -10 -11 -9 -8 -7 -8 -8
-14 -14 -14 -14 -14 -14 -14 -14 -13 -13 -13 -12 -12 -11 -11 -10 -9 -9 -8 -7 -8 -8 -7 -7 -7 -7 -8 -9 -10 -11 -10 -10 -10 -9 -8 -8 -7 -8
-14 -14 -14 -15 -15 -14 -14 -14 -13 -13 -13 -12 -12 -12 -11 -10 -10 -10 -9 -9 -8 -7 -7 -7 -7 -8 -8 -8 -9 -9 -10 -11 -10 -10 -9 -8 -8 -7
-15 -15 -15 -15 -15 -15 -15 -14 -13 -13 -14 -13 -12 -12 -12 -11 -10 -10 -10 -10 -9 -8 -7 -8 -8 -8 -8 -8 -8 -8 -8 -8 -8 -8 -8 -8 -7 -7
-16 -16 -16 -15 -15 -16 -15 -15 -14 -14 -14 -14 -13 -12 -11 -11 -11 -11 -11 -10 -10 -10 -9 -9 -10 -9 -9 -9 -8 -8 -8 -8 -9 -9 -9 -8 -7 -8
-17 -17 -16 -16 -17 -17 -17 -16 -15 -15 -15 -14 -13 -12 -12 -12 -11 -12 -12 -12 -11 -11 -11 -10 -10 -10 -10 -10 -9 -8 -9 -10 -10 -10 -10 -9 -9 -8
-25 -23 -19 -21 -25 -24 -23 -20 -18 -18 -18 -17 -14 -13 -13 -13 -12 -12 -12 -12 -12 -12 -11 -11 -11 -10 -11 -11 -10 -9 -10 -11 -11 -10 -10 -11 -11 -10
Wind_Speed
25 28 23 18 17 17 17 18 19 22 26 21 20 17 20 22 22 15 22 20 19 22 23 24 25 23 22 21 22 22 23 22 22 23 24 24 25 28
23 24 22 19 20 19 19 21 21 24 31 25 23 20 14 21 19 14 21 19 17 17 18 19 21 24 24 23 22 22 22 22 23 24 26 26 26 27
22 22 23 23 22 21 21 22 23 24 27 27 22 21 19 19 16 20 21 15 18 21 22 21 22 27 30 27 26 24 24 23 23 24 25 26 26 26
22 23 26 27 29 25 22 22 23 23 25 30 26 24 25 23 21 19 15 17 19 21 20 19 22 22 24 26 32 31 29 28 27 27 26 26 25 27
21 25 25 27 27 27 25 24 22 21 21 22 23 22 21 21 22 21 19 18 18 21 22 24 22 22 23 26 28 30 37 37 33 32 30 30 28 28
34 29 30 26 27 27 25 22 23 23 23 23 22 20 21 21 22 26 27 26 25 20 20 20 20 22 23 24 25 26 31 36 40 40 36 33 33 33
35 35 29 27 28 26 27 28 27 30 36 38 35 28 22 22 21 18 17 15 14 13 15 20 20 17 20 24 27 27 26 25 29 35 42 40 39 37
39 38 26 24 26 26 21 25 24 26 28 28 29 27 27 25 23 21 19 17 17 18 16 18 21 23 19 15 16 21 31 32 31 24 22 29 36 41
31 25 27 25 25 22 21 21 22 23 25 29 30 29 32 33 35 33 29 23 20 18 21 23 23 22 23 25 17 21 23 23 26 31 30 26 26 32
26 25 27 26 26 25 25 26 25 26 29 28 29 29 26 22 23 25 25 27 29 28 23 25 26 29 26 26 25 27 28 27 28 29 30 31 32 34
26 23 23 26 27 23 23 25 25 24 21 21 25 28 28 27 28 30 31 29 28 25 22 25 26 28 30 32 32 32 31 34 34 35 34 35 36 36
27 28 27 24 26 25 23 24 24 24 21 24 25 25 27 26 23 23 28 31 31 31 32 27 23 21 24 26 27 27 26 27 26 25 28 29 34 35
29 26 21 19 19 21 24 26 26 27 28 29 28 26 23 21 23 26 27 26 26 30 24 22 25 26 24 22 21 22 24 25 22 17 18 20 25 29
24 23 24 24 24 23 18 13 15 17 16 11 12 15 16 15 15 14 18 22 25 26 23 25 24 23 26 27 24 19 17 17 18 19 20 17 17 18
22 20 15 19 19 10 12 12 12 7 12 10 12 12 13 15 16 16 17 18 21 24 24 22 23 23 22 25 25 26 21 21 18 20 19 16 16 19
18 16 16 16 9 13 12 10 8 8 8 9 10 10 10 9 10 11 12 12 14 15 13 16 20 21 23 24 24 27 24 24 22 23 17 15 17 18
14 16 15 14 15 16 13 10 9 10 8 8 7 9 9 9 7 6 8 9 12 12 12 11 12 14 17 19 22 24 24 24 23 20 20 19 15 14
13 14 16 16 15 17 16 13 13 14 12 10 8 9 9 8 7 6 8 7 9 8 9 9 11 12 13 15 17 19 18 19 19 16 18 18 18 17
13 13 16 16 15 14 15 15 17 16 12 12 11 10 9 6 9 8 7 9 7 8 7 11 5 6 13 17 16 13 16 16 19 21 20 20 22 21
14 13 15 16 15 14 14 13 16 17 13 11 11 10 9 9 9 9 6 8 7 8 5 3 4 8 9 5 7 7 7 17 19 19 19 17 14 13
14 13 13 14 15 13 13 11 13 14 15 10 11 12 12 10 9 9 9 7 7 6 8 10 8 6 5 5 8 14 9 6 8 10 12 11 9 12
14 12 12 13 13 13 12 10 11 11 11 10 9 11 12 10 10 10 9 8 8 7 6 6 7 8 5 5 5 4 7 9 6 5 4 8 11 5
14 12 11 12 13 13 13 11 10 11 10 10 6 9 11 10 10 10 8 8 9 8 6 7 6 5 7 8 5 4 7 5 5 5 7 10 6 10
Wind_Direction
289 294 294 293 298 294 295 287 283 291 300 308 299 306 313 275 262 257 268 259 254 256 257 253 253 253 251 248 246 241 241 242 245 247 249 248 248 247
294 286 278 269 268 276 283 285 284 283 287 293 298 299 288 286 272 276 257 251 252 250 248 250 255 251 248 243 244 243 241 241 244 246 249 254 254 252
296 298 289 288 292 284 285 277 281 280 280 288 287 286 285 282 284 265 263 271 259 259 264 264 262 257 253 246 242 241 240 240 243 247 248 250 256 257
305 301 297 297 295 294 300 293 285 284 282 284 286 286 280 285 277 277 275 257 257 267 270 271 262 266 265 261 253 247 243 241 241 244 248 250 252 255
303 303 306 295 289 286 286 282 284 286 282 291 288 283 282 284 286 282 277 273 268 263 261 269 268 257 249 259 262 258 254 250 248 245 246 249 253 254
304 295 285 294 295 287 283 276 272 275 278 284 289 292 286 285 285 283 279 273 270 267 260 267 274 265 262 261 263 262 264 261 257 252 249 250 254 256
303 304 295 283 287 290 290 281 280 277 277 283 281 280 284 285 283 284 285 277 265 263 261 256 261 266 277 267 264 264 267 271 266 262 259 254 254 256
307 304 299 292 287 289 287 286 285 285 283 279 275 273 272 271 276 282 284 285 289 250 260 259 258 254 256 263 268 257 257 258 260 264 267 264 258 254
307 298 297 297 292 300 289 275 274 273 270 266 267 272 272 265 263 272 273 278 283 276 270 270 260 255 262 257 255 265 266 264 260 256 257 257 263 261
307 295 291 294 293 288 293 290 283 277 273 276 279 276 276 276 269 266 271 273 271 269 267 270 263 262 261 261 260 256 265 272 268 259 253 254 260 264
319 312 307 302 297 294 285 285 286 283 280 276 269 268 266 266 267 271 273 271 270 270 264 263 266 270 269 265 268 271 272 273 276 274 265 259 258 263
315 312 310 306 297 295 285 280 279 285 278 274 269 269 269 268 264 258 264 262 265 270 262 264 269 268 275 269 267 273 271 277 274 268 266 262 260 261
315 315 317 302 308 303 302 295 289 284 281 280 280 279 278 275 269 264 261 263 269 262 271 264 263 267 268 274 269 270 276 288 288 283 273 267 260 259
319 315 306 310 309 308 309 311 298 292 291 292 298 299 294 290 287 277 261 259 268 271 274 264 260 266 270 269 270 274 274 283 285 276 281 276 263 265
323 323 334 315 322 337 330 322 319 333 326 297 294 295 286 280 276 274 273 270 266 268 270 266 263 268 268 260 265 268 270 271 280 278 270 266 268 273
341 346 332 333 347 0 346 346 336 321 317 324 311 313 311 308 303 293 299 302 287 282 277 264 260 261 263 261 263 269 265 272 278 280 292 273 268 272
351 343 350 6 16 3 0 1 359 352 340 328 337 332 328 317 307 309 301 306 297 296 292 285 269 261 262 265 264 264 266 267 267 274 275 272 261 265
354 353 1 5 8 9 4 10 18 7 4 0 351 343 345 345 340 332 1 307 317 310 310 301 273 262 261 265 262 262 257 257 262 271 280 290 281 268
355 2 359 359 2 3 5 14 16 7 7 19 7 359 350 18 2 338 339 323 316 4 313 299 266 268 253 265 282 262 257 254 256 262 268 270 278 288
2 4 355 355 355 0 5 12 19 4 9 20 19 17 16 18 3 358 350 353 359 12 52 325 287 284 292 318 328 327 286 256 261 264 270 269 263 267
347 354 354 351 352 359 4 11 15 9 4 16 29 27 23 11 5 1 360 0 355 346 346 341 344 332 317 302 313 287 272 278 295 281 268 258 276 253
345 351 352 349 348 354 358 6 8 1 1 13 29 35 27 19 14 2 360 357 354 348 334 329 344 354 335 298 319 297 309 332 335 342 311 268 256 250
351 352 354 351 356 356 1 5 2 359 358 8 33 36 30 15 19 10 5 3 353 330 337 6 343 7 347 355 315 309 324 337 319 327 325 338 307 262
Height
1479 1477 1474 1472 1471 1469 1467 1466 1465 1459 1454 1453 1453 1452 1451 1450 1453 1449 1456 1457 1456 1461 1462 1462 1465 1465 1466 1468 1471 1472 1475 1476 1479 1480 1483 1485 1487 1489
1474 1472 1470 1469 1467 1466 1465 1463 1462 1459 1452 1453 1452 1451 1451 1452 1449 1449 1453 1454 1453 1456 1458 1457 1460 1461 1463 1464 1465 1466 1468 1470 1472 1474 1477 1479 1482 1483
1470 1468 1466 1464 1461 1460 1459 1458 1457 1456 1451 1449 1450 1449 1448 1449 1448 1448 1446 1449 1451 1452 1452 1453 1454 1456 1457 1458 1460 1462 1462 1464 1465 1468 1471 1473 1474 1477
1466 1464 1462 1461 1458 1457 1454 1454 1452 1451 1449 1445 1444 1444 1443 1443 1442 1444 1445 1445 1446 1445 1446 1448 1449 1450 1452 1452 1454 1456 1457 1459 1460 1462 1464 1465 1466 1469
1462 1460 1458 1456 1453 1451 1449 1448 1446 1445 1443 1441 1439 1439 1438 1438 1438 1438 1440 1440 1440 1442 1442 1443 1443 1445 1446 1447 1447 1448 1450 1452 1454 1456 1457 1458 1460 1462
1456 1454 1452 1450 1447 1445 1443 1441 1440 1438 1437 1436 1434 1434 1435 1435 1435 1434 1434 1435 1435 1436 1437 1438 1438 1439 1440 1441 1442 1442 1443 1444 1446 1447 1449 1451 1453 1455
1450 1447 1444 1442 1440 1438 1436 1435 1434 1432 1432 1431 1430 1430 1430 1431 1432 1430 1428 1428 1429 1430 1430 1430 1432 1433 1434 1434 1436 1437 1437 1437 1438 1439 1440 1443 1445 1447
1442 1438 1436 1434 1433 1432 1429 1427 1427 1426 1425 1425 1424 1424 1424 1425 1424 1423 1422 1423 1423 1425 1424 1425 1426 1427 1428 1430 1429 1430 1429 1430 1430 1431 1431 1433 1435 1438
1436 1432 1429 1428 1425 1423 1420 1419 1419 1419 1419 1418 1417 1418 1417 1417 1418 1417 1417 1417 1418 1419 1419 1418 1420 1421 1423 1424 1423 1422 1422 1423 1423 1424 1425 1426 1427 1427
1430 1427 1423 1420 1419 1417 1414 1413 1412 1412 1412 1412 1411 1409 1410 1411 1411 1411 1411 1410 1410 1411 1414 1413 1415 1414 1415 1415 1415 1416 1416 1416 1418 1419 1420 1421 1421 1420
1425 1422 1419 1415 1413 1411 1409 1407 1405 1404 1405 1404 1404 1403 1403 1404 1405 1405 1404 1405 1403 1404 1407 1407 1408 1407 1407 1407 1408 1408 1409 1410 1409 1410 1411 1413 1414 1414
1421 1417 1414 1411 1407 1405 1403 1401 1399 1399 1398 1397 1396 1396 1396 1396 1397 1397 1397 1396 1397 1397 1399 1402 1402 1403 1400 1399 1401 1401 1401 1402 1401 1400 1401 1402 1403 1404
1415 1411 1409 1407 1402 1400 1398 1396 1394 1392 1390 1389 1388 1387 1387 1387 1387 1388 1390 1390 1390 1389 1392 1395 1394 1395 1395 1394 1394 1395 1395 1395 1395 1394 1394 1394 1394 1396
1411 1408 1404 1401 1398 1395 1392 1389 1387 1385 1384 1383 1383 1383 1382 1382 1382 1382 1383 1384 1383 1383 1386 1387 1387 1388 1389 1389 1389 1390 1390 1390 1389 1389 1389 1388 1389 1389
1408 1404 1401 1397 1394 1391 1389 1387 1385 1383 1382 1382 1381 1380 1379 1378 1378 1378 1378 1378 1378 1377 1378 1379 1380 1381 1382 1382 1383 1384 1385 1384 1384 1383 1383 1383 1383 1383
1405 1402 1399 1395 1392 1390 1387 1385 1383 1382 1381 1380 1378 1377 1376 1375 1374 1374 1373 1373 1372 1371 1372 1372 1373 1375 1375 1376 1377 1378 1380 1380 1380 1379 1378 1378 1378 1377
1404 1401 1398 1394 1392 1390 1387 1385 1383 1381 1379 1378 1377 1375 1374 1373 1372 1371 1371 1370 1369 1368 1368 1368 1368 1369 1369 1370 1371 1371 1372 1374 1375 1376 1375 1374 1374 1375
1404 1401 1398 1395 1393 1391 1388 1385 1383 1381 1379 1377 1375 1374 1373 1371 1370 1369 1368 1368 1367 1366 1365 1364 1364 1365 1366 1365 1365 1364 1366 1368 1370 1371 1371 1370 1369 1370
1404 1402 1399 1396 1394 1391 1389 1386 1383 1381 1379 1377 1375 1374 1372 1371 1370 1368 1367 1366 1365 1364 1363 1362 1361 1361 1362 1361 1362 1361 1361 1363 1363 1364 1365 1365 1364 1363
1404 1402 1400 1397 1394 1391 1389 1386 1383 1381 1379 1377 1375 1374 1373 1371 1370 1369 1367 1366 1365 1363 1362 1360 1361 1361 1360 1360 1360 1359 1359 1360 1361 1360 1360 1359 1359 1359
1405 1402 1400 1397 1394 1392 1389 1386 1384 1382 1380 1378 1376 1374 1373 1372 1371 1369 1368 1366 1365 1363 1362 1360 1359 1359 1358 1358 1358 1355 1357 1357 1357 1356 1355 1356 1355 1355
1405 1402 1400 1397 1394 1392 1389 1387 1384 1382 1380 1378 1376 1374 1373 1372 1371 1369 1368 1366 1365 1363 1362 1361 1359 1358 1357 1357 1356 1355 1355 1355 1354 1353 1353 1353 1353 1352
1404 1402 1399 1397 1395 1392 1389 1387 1384 1382 1379 1377 1376 1374 1373 1372 1371 1369 1368 1366 1364 1362 1361 1359 1358 1357 1357 1356 1355 1355 1355 1354 1353 1353 1352 1351 1350 1350